Simultaneous Nadir Overpasses (SNOs) Predictions

Prediction of SNOs between AQUA and METOP-B Satellite Orbit:

Table of predicted SNOs for the next 14.0 days since TLE Epoch: 9/25/2021
Index Date (AQUA) Time (AQUA) Lat,Lon (AQUA) SZA (AQUA ) Date (METOP-B) Time (METOP-B) Lat,Lon (METOP-B) SZA (METOP-B ) Distance(km) Time Diff (sec)
1 09/26/2021 12:56:19 73.72, -19.64 75.12 09/26/2021 12:55:10 73.72, -19.63 75.12 0.50 69
2 09/26/2021 13:45:46 -73.77, 147.88 104.82 09/26/2021 13:45:51 -73.77, 147.81 104.82 2.11 5
3 09/26/2021 14:35:15 73.87, -44.70 75.30 09/26/2021 14:36:28 73.90, -44.54 75.32 5.56 73
4 09/29/2021 08:30:35 73.73, 46.78 76.21 09/29/2021 08:29:32 73.72, 46.79 76.21 0.78 63
5 09/29/2021 09:20:01 -73.78,-145.70 103.72 09/29/2021 09:20:12 -73.78,-145.76 103.73 1.97 11
6 09/29/2021 10:09:35 74.14, 21.13 76.67 09/29/2021 10:10:45 74.10, 22.35 76.60 37.44 70
7 10/02/2021 04:04:50 73.75, 113.17 77.32 10/02/2021 04:03:53 73.72, 113.19 77.30 3.01 57
8 10/02/2021 04:54:17 -73.80, -79.30 102.62 10/02/2021 04:54:34 -73.78, -79.34 102.63 2.21 17
9 10/02/2021 05:43:55 74.36, 87.04 77.99 10/02/2021 05:45:02 74.34, 89.38 77.93 70.26 67
10 10/04/2021 23:39:05 73.72, 179.66 78.38 10/04/2021 23:38:15 73.72, 179.60 78.38 2.10 50
11 10/05/2021 00:28:33 -73.82, -12.92 101.51 10/05/2021 00:28:55 -73.83, -12.81 101.50 3.53 22
12 10/07/2021 19:13:21 73.77,-113.99 79.50 10/07/2021 19:12:36 73.76,-113.89 79.50 3.28 45
13 10/07/2021 20:02:48 -73.81, 53.55 100.44 10/07/2021 20:03:17 -73.83, 53.60 100.43 2.48 29



Historial Predications of SNOs between AQUA and METOP-B
